Location: Marcé
(47.5801°N, 0.3280°W)
Time: 16:15:18
(UTC+01:00)

SR - Pass Details

Date: 01 December 2021
Orbit: 582 x 872 km, 66.7° (Epoch: 22 January)

Event Time Altitude Azimuth Distance (km) Brightness Sun altitude
Rises 01:23:11 0° 211° (SSW) 2,994 - -63.4°
Reaches altitude 10° 01:25:33 10° 211° (SSW) 2,043 - -63.3°
Maximum altitude 01:30:08 86° 125° (SE) 624 - -63.0°
Drops below altitude 10° 01:34:28 10° 35° (NE) 1,938 - -62.7°
Sets 01:36:40 0° 35° (NE) 2,827 - -62.6°
